Home   Weather   Lierbyen   Past weeks

Flag for Norway Past Weather in Lierbyen, Norway — Yesterday and Last 2 Weeks

Now
50 °F

Partly sunny.


Feels Like: 41 °F
Forecast: 48 / 58 °F
Wind: 40 mph from Northwest

Location: Statfjord B

Current Time: Sep 29, 2016 at 3:46:34 PM

Latest Report: Sep 29, 2016 at 2:50 PM


Visibility: N/A

Pressure: 28.85 "Hg

Humidity: 94%

Dew Point: 48 °F

Location of LierbyenLocation

Past Weather in Lierbyen — Graph

°F

Lierbyen Temperature Yesterday

Maximum temperature yesterday: 54 °F (at 12:20 AM)
Minimum temperature yesterday: 50 °F (at 12:50 PM)
Average temperature yesterday: 51 °F

High & Low Weather Summary for the Past Weeks

 TemperatureHumidityPressure
High70 °F (Sep 16, 6:20 AM)100% (Sep 14, 11:20 PM)30.21 "Hg (Sep 14, 11:20 PM)
Low50 °F (Sep 27, 8:50 PM)60% (Sep 16, 6:20 AM)28.82 "Hg (Sep 29, 12:20 PM)
Average56 °F90%29.88 "Hg
* Reported Sep 14 2:20 PM — Sep 29 2:50 PM, Lierbyen, Weather by CustomWeather, © 2016

Note: Actual official high and low records may vary slightly from our data, if they occured in-between our weather recording intervals... More about our weather records

Advertising

Lierbyen Weather History for the Previous 24 Hours

Scroll right to see more
 ConditionsComfort  
Time TempWeatherWind HumidityBarometerVisibility
2:50 PM
Thu, Sep 29
50 °FPartly sunny.40 mph94%28.85 "HgN/A
2:20 PM54 °FPartly sunny.24 mph82%28.85 "HgN/A
1:50 PM55 °FPassing clouds.16 mph72%28.82 "HgN/A
1:20 PM54 °FPassing clouds.9 mph77%28.82 "HgN/A
12:50 PM52 °FScattered clouds.7 mph82%28.82 "HgN/A
12:20 PM54 °FPartly sunny.24 mph82%28.82 "HgN/A
11:50 AM54 °FSprinkles. Partly sunny.31 mph82%28.85 "HgN/A
11:20 AM52 °FLight rain. Partly sunny.33 mph88%28.85 "HgN/A
10:50 AM52 °FLight rain. Fog.38 mph88%28.88 "Hg2 mi
10:20 AM54 °FPartly sunny.35 mph82%28.91 "HgN/A
9:50 AM52 °FPassing clouds.39 mph88%28.91 "HgN/A
9:20 AM54 °FScattered clouds.41 mph82%28.91 "HgN/A
8:50 AM54 °FPartly sunny.43 mph82%28.91 "HgN/A
8:20 AM54 °FBroken clouds.43 mph88%28.94 "HgN/A
7:50 AM52 °FLight rain. Partly sunny.40 mph94%28.97 "Hg3 mi
7:20 AM52 °FLight rain. Partly sunny.35 mph88%28.97 "HgN/A
6:50 AM52 °FSprinkles. Fog.38 mph88%29.00 "Hg1 mi
6:20 AM52 °FSprinkles. Passing clouds.44 mph94%29.03 "Hg6 mi
5:50 AM55 °FPartly cloudy.43 mph88%29.00 "HgN/A
5:20 AM55 °FPartly cloudy.39 mph88%29.03 "HgN/A
4:50 AM55 °FPassing clouds.44 mph88%29.06 "HgN/A
4:20 AM55 °FPartly cloudy.45 mph88%29.06 "HgN/A
3:50 AM55 °FPassing clouds.51 mph94%29.09 "HgN/A
3:20 AM55 °FLight rain. Passing clouds.50 mph94%29.09 "HgN/A
2:50 AM54 °FLight rain. Fog.45 mph100%29.12 "Hg3 mi
2:20 AM52 °FRain. Passing clouds.35 mph100%29.18 "Hg2 mi
1:50 AM52 °FLight rain. Passing clouds.36 mph94%29.24 "Hg2 mi
1:20 AM52 °FLight rain. Passing clouds.32 mph94%29.30 "Hg2 mi
12:50 AM52 °FLight rain. Partly cloudy.29 mph94%29.36 "Hg3 mi
12:20 AM52 °FRain. Partly cloudy.23 mph94%29.39 "Hg2 mi
11:50 PM
Wed, Sep 28
52 °FLight rain. Passing clouds.22 mph88%29.45 "Hg6 mi
11:20 PM52 °FSprinkles. Passing clouds.18 mph88%29.47 "HgN/A
10:50 PM52 °FOvercast.18 mph82%29.50 "HgN/A
10:20 PM50 °FDrizzle. Overcast.16 mph88%29.53 "Hg5 mi
9:50 PM52 °FPassing clouds.15 mph77%29.56 "HgN/A
9:20 PM50 °FPassing clouds.13 mph82%29.62 "HgN/A
8:50 PM50 °FPassing clouds.10 mph76%29.62 "HgN/A
8:20 PM50 °FPartly cloudy.9 mph76%29.65 "HgN/A
7:50 PM50 °FPartly cloudy.9 mph76%29.65 "HgN/A
7:20 PM50 °FOvercast.10 mph71%29.68 "HgN/A
6:50 PM50 °FPartly sunny.5 mph71%29.68 "HgN/A
6:20 PM50 °FPartly sunny.5 mph67%29.68 "HgN/A
5:50 PM50 °FOvercast.9 mph67%29.71 "HgN/A
5:20 PM50 °FOvercast.13 mph67%29.71 "HgN/A
4:50 PM50 °FOvercast.13 mph71%29.71 "HgN/A
4:20 PM50 °FPartly sunny.13 mph71%29.71 "HgN/A
3:50 PM50 °FPartly sunny.14 mph76%29.71 "HgN/A
3:20 PM50 °FPartly sunny.16 mph76%29.71 "HgN/A
Weather by CustomWeather, © 2016

See weather overviewHow to use our weather pages